Flag for U.S.A. Weather past 2 weeks in Philadelphia, Pennsylvania, U.S.A.

Now
42 °F

Passing clouds.


Feels Like: 38 °F
Forecast: 34 / 53 °F
Wind: 7 mph from Southwest

Location: Philadelphia International Airport

Current Time: Dec 26, 2014 at 8:48:14 PM

Latest Report: Dec 26, 2014 at 7:54 PM


Visibility: 10 mi

Pressure: 30.27 "Hg

Humidity: 65%

Dew point: 31 °F

Location of PhiladelphiaLocation

Historic Weather in Philadelphia — Graph

°F

Philadelphia temperature yesterday

Maximum temperature yesterday: 65 °F (at 1:54 AM)
Minimum temperature yesterday: 40 °F (at 10:54 PM)
Average temperature yesterday: 52 °F

Past Weeks' High & Low Weather Summary

 TemperatureHumidityPressure
High65 °F (Dec 25, 1:54 AM)97% (Dec 16, 10:04 AM)30.35 "Hg (Dec 16, 10:04 AM)
Low28 °F (Dec 22, 1:54 AM)41% (Dec 25, 12:54 PM)29.53 "Hg (Dec 25, 12:54 AM)
Average42 °F68%30.06 "Hg
* Reported Dec 11 7:54 PM — Dec 26 7:54 PM, Philadelphia, Weather by CustomWeather, © 2014

Note: Actual official high and low records may vary slightly from our data, if they occured in-between our weather recording intervals... More about our weather records

Advertising

Philadelphia weather history for previous 24 hours

 ConditionsComfort  
Time TempWeatherWind HumidityBarometerVisibility
7:54 PM
Dec 26
42 °FPassing clouds.7 mph65%30.27 "Hg10 mi
6:54 PM43 °FPassing clouds.9 mph62%30.27 "Hg10 mi
5:54 PM44 °FPassing clouds.6 mph58%30.25 "Hg10 mi
4:54 PM46 °FPassing clouds.8 mph56%30.24 "Hg10 mi
3:54 PM49 °FScattered clouds.9 mph50%30.23 "Hg10 mi
2:54 PM50 °FPassing clouds.12 mph46%30.23 "Hg10 mi
1:54 PM49 °FPassing clouds.12 mph48%30.24 "Hg10 mi
12:54 PM48 °FPassing clouds.10 mph50%30.24 "Hg10 mi
11:54 AM47 °FPassing clouds.8 mph50%30.28 "Hg10 mi
10:54 AM46 °FPassing clouds.10 mph51%30.31 "Hg10 mi
9:54 AM43 °FPassing clouds.8 mph58%30.33 "Hg10 mi
8:54 AM40 °FSunny.9 mph65%30.31 "Hg10 mi
7:54 AM37 °FSunny.8 mph70%30.29 "Hg10 mi
6:54 AM38 °FClear.12 mph68%30.29 "Hg10 mi
5:54 AM38 °FClear.12 mph70%30.26 "Hg10 mi
4:54 AM35 °FClear.9 mph78%30.24 "Hg10 mi
3:54 AM34 °FClear.8 mph79%30.22 "Hg10 mi
2:54 AM37 °FClear.6 mph76%30.21 "Hg10 mi
1:54 AM36 °FClear.9 mph75%30.21 "Hg10 mi
12:54 AM38 °FClear.8 mph73%30.19 "Hg10 mi
11:54 PM
Dec 25
40 °FClear.9 mph70%30.20 "Hg10 mi
10:54 PM40 °FClear.9 mph63%30.19 "Hg10 mi
9:54 PM45 °FClear.14 mph51%30.16 "Hg10 mi
8:54 PM46 °FPassing clouds.14 mph54%30.14 "Hg10 mi
Weather by CustomWeather, © 2014

See weather overviewHow to use our weather pages